Date,TemperatureHighF,TemperatureAvgF,TemperatureLowF,DewpointHighF,DewpointAvgF,DewpointLowF,HumidityHigh,HumidityAvg,HumidityLow,PressureMaxIn,PressureMinIn,WindSpeedMaxMPH,WindSpeedAvgMPH,GustSpeedMaxMPH,PrecipitationSumIn
2013-11-1,63.0,51.1,39.0,48.8,44.3,38.2,100,80,47,30.33,29.94,5,1,9,0.00
2013-11-2,53.0,46.5,38.0,50.0,43.3,36.0,100,89,60,30.05,29.71,29,8,36,0.81
2013-11-3,49.0,42.3,39.0,42.5,39.0,33.0,100,89,58,30.15,30.01,20,6,25,0.14
2013-11-4,44.0,40.2,37.0,43.0,39.4,37.0,100,97,85,30.22,30.14,7,0,10,0.01
2013-11-5,48.0,43.5,39.0,48.0,43.4,39.0,100,100,94,30.24,30.13,14,1,14,0.10
2013-11-6,49.0,45.3,33.0,48.0,45.1,33.0,100,99,90,30.35,30.23,9,1,12,0.29
2013-11-7,47.0,43.9,38.0,47.0,42.4,30.0,100,95,78,30.27,29.91,19,3,30,0.23
2013-11-8,50.0,45.6,40.0,45.2,42.5,39.2,100,89,73,30.21,30.05,15,3,19,0.04
2013-11-9,47.0,41.6,37.0,43.7,40.2,37.0,100,95,84,30.22,30.13,3,0,4,0.00
2013-11-10,52.0,44.1,39.0,45.0,41.4,38.2,100,91,69,30.28,30.13,4,0,6,0.00
2013-11-11,47.0,44.6,42.0,43.5,42.4,41.4,100,92,82,30.37,30.25,7,1,9,0.00
2013-11-12,53.0,46.5,43.0,50.2,44.9,40.4,100,94,66,30.41,30.25,9,1,11,0.09
2013-11-13,57.0,48.3,37.0,47.9,44.8,35.2,100,89,57,30.46,30.32,14,3,15,0.00
2013-11-14,51.0,43.9,38.0,43.4,40.4,38.0,100,88,67,30.32,30.06,20,6,28,0.00
2013-11-15,46.0,43.8,42.0,42.5,39.3,35.5,96,84,72,30.07,29.46,27,9,31,0.00
2013-11-16,46.0,42.5,39.0,44.0,39.7,36.2,100,90,71,29.82,29.44,31,15,36,0.12
2013-11-17,48.0,44.3,41.0,46.7,43.5,39.4,100,97,81,30.00,29.82,11,1,26,0.03
2013-11-18,48.0,43.2,40.0,46.4,43.0,40.0,100,99,91,30.00,29.86,3,0,8,0.00
2013-11-19,45.0,42.3,39.0,40.8,36.6,32.0,85,80,71,29.98,29.83,18,10,21,0.00
2013-11-20,43.0,34.3,22.0,34.3,24.1,13.8,100,69,36,30.60,29.98,22,3,28,0.00
2013-11-21,41.0,27.5,17.0,21.0,17.4,11.6,100,70,31,30.84,30.60,5,0,10,0.00
2013-11-22,39.0,27.1,17.0,22.4,19.1,14.3,100,74,44,30.91,30.73,10,1,12,0.00
2013-11-23,41.0,28.6,19.0,25.0,21.4,15.0,100,77,43,30.76,30.48,7,1,11,0.00
2013-11-24,41.0,28.7,20.0,26.5,22.8,16.6,100,81,47,30.54,30.34,7,0,8,0.00
2013-11-25,44.0,29.8,21.0,29.1,23.5,18.1,100,80,46,30.61,30.43,9,0,9,0.00
2013-11-26,40.0,31.1,23.0,29.2,26.4,19.5,100,84,57,30.50,30.29,3,0,5,0.00
2013-11-27,40.0,31.2,25.0,30.7,27.8,25.0,100,89,58,30.34,30.19,5,0,7,0.00
2013-11-28,45.0,31.3,24.0,33.7,27.7,22.9,100,88,56,30.36,30.18,4,0,6,0.00
2013-11-29,35.0,30.5,24.0,34.5,29.6,24.0,100,97,82,30.41,30.31,2,0,3,0.00
2013-11-30,47.0,38.9,32.0,43.5,37.0,32.0,100,93,73,30.43,30.24,9,1,12,0.00